Year,Month,Day,Hour,Minute,Value (Times are PST for windgust in km/hr)
2016,11,06,00,00,1.60
2016,11,06,00,01,3.20
2016,11,06,00,02,1.60
2016,11,06,00,06,1.60
2016,11,06,00,19,3.20
2016,11,06,00,20,3.20
2016,11,06,00,21,1.60
2016,11,06,00,22,1.60
2016,11,06,00,23,4.80
2016,11,06,00,24,3.20
2016,11,06,00,25,6.40
2016,11,06,00,26,8.10
2016,11,06,00,27,3.20
2016,11,06,00,28,6.40
2016,11,06,00,29,9.60
2016,11,06,00,30,4.80
2016,11,06,00,31,1.60
2016,11,06,00,32,6.40
2016,11,06,00,33,8.10
2016,11,06,00,34,3.20
2016,11,06,00,35,4.80
2016,11,06,00,36,9.60
2016,11,06,00,37,8.10
2016,11,06,00,38,6.40
2016,11,06,00,39,6.40
2016,11,06,00,40,8.10
2016,11,06,00,41,6.40
2016,11,06,00,42,6.40
2016,11,06,00,43,3.20
2016,11,06,00,44,4.80
2016,11,06,00,45,8.10
2016,11,06,00,46,6.40
2016,11,06,00,47,3.20
2016,11,06,00,48,3.20
2016,11,06,00,49,6.40
2016,11,06,00,50,4.80
2016,11,06,00,51,8.10
2016,11,06,00,52,4.80
2016,11,06,00,53,14.50
2016,11,06,00,54,14.50
2016,11,06,00,55,6.40
2016,11,06,00,56,9.60
2016,11,06,00,57,8.10
2016,11,06,00,58,3.20
2016,11,06,00,59,8.10
2016,11,06,01,00,4.80
2016,11,06,01,01,4.80
2016,11,06,01,03,6.40
2016,11,06,01,04,8.10
2016,11,06,01,05,4.80
2016,11,06,01,06,1.60
2016,11,06,01,07,1.60
2016,11,06,01,08,6.40
2016,11,06,01,09,6.40
2016,11,06,01,10,1.60
2016,11,06,01,11,1.60
2016,11,06,01,12,1.60
2016,11,06,01,13,4.80
2016,11,06,01,14,1.60
2016,11,06,01,15,3.20
2016,11,06,01,17,4.80
2016,11,06,01,18,6.40
2016,11,06,01,19,1.60
2016,11,06,01,20,3.20
2016,11,06,01,21,6.40
2016,11,06,01,22,4.80
2016,11,06,01,23,1.60
2016,11,06,01,24,3.20
2016,11,06,01,25,3.20
2016,11,06,01,26,4.80
2016,11,06,01,27,4.80
2016,11,06,01,28,8.10
2016,11,06,01,29,8.10
2016,11,06,01,30,3.20
2016,11,06,01,31,3.20
2016,11,06,01,32,3.20
2016,11,06,01,33,3.20
2016,11,06,01,34,4.80
2016,11,06,01,35,3.20
2016,11,06,01,36,3.20
2016,11,06,01,37,1.60
2016,11,06,01,38,1.60
2016,11,06,01,39,3.20
2016,11,06,01,40,3.20
2016,11,06,01,41,3.20
2016,11,06,01,42,3.20
2016,11,06,01,43,1.60
2016,11,06,01,44,1.60
2016,11,06,01,45,3.20
2016,11,06,01,46,3.20
2016,11,06,01,47,3.20
2016,11,06,01,48,3.20
2016,11,06,01,49,3.20
2016,11,06,01,50,3.20
2016,11,06,01,51,1.60
2016,11,06,01,53,1.60
2016,11,06,01,54,3.20
2016,11,06,01,55,3.20
2016,11,06,01,56,3.20
2016,11,06,01,57,3.20
2016,11,06,01,58,4.80
2016,11,06,01,59,4.80
2016,11,06,02,10,1.60
2016,11,06,02,11,1.60
2016,11,06,02,12,1.60
2016,11,06,02,14,1.60
2016,11,06,02,15,1.60
2016,11,06,02,16,1.60
2016,11,06,02,17,1.60
2016,11,06,02,18,1.60
2016,11,06,02,28,1.60
2016,11,06,02,29,3.20
2016,11,06,02,30,1.60
2016,11,06,02,31,1.60
2016,11,06,02,33,1.60
2016,11,06,02,34,1.60
2016,11,06,02,35,1.60
2016,11,06,02,36,1.60
2016,11,06,02,37,1.60
2016,11,06,02,38,1.60
2016,11,06,02,39,1.60
2016,11,06,02,40,1.60
2016,11,06,02,41,1.60
2016,11,06,02,42,1.60
2016,11,06,02,47,3.20
2016,11,06,02,48,3.20
2016,11,06,02,49,3.20
2016,11,06,02,50,3.20
2016,11,06,02,51,3.20
2016,11,06,02,52,3.20
2016,11,06,02,53,3.20
2016,11,06,02,54,3.20
2016,11,06,02,55,3.20
2016,11,06,02,56,3.20
2016,11,06,02,57,1.60
2016,11,06,03,01,1.60
2016,11,06,03,02,1.60
2016,11,06,03,03,3.20
2016,11,06,03,04,3.20
2016,11,06,03,05,3.20
2016,11,06,03,06,3.20
2016,11,06,03,07,3.20
2016,11,06,03,08,3.20
2016,11,06,03,09,3.20
2016,11,06,03,10,3.20
2016,11,06,03,11,1.60
2016,11,06,03,12,3.20
2016,11,06,03,13,3.20
2016,11,06,03,14,3.20
2016,11,06,03,15,3.20
2016,11,06,03,16,3.20
2016,11,06,03,17,3.20
2016,11,06,03,18,3.20
2016,11,06,03,19,1.60
2016,11,06,03,20,1.60
2016,11,06,03,22,1.60
2016,11,06,03,23,3.20
2016,11,06,03,24,3.20
2016,11,06,03,25,3.20
2016,11,06,03,26,1.60
2016,11,06,03,27,1.60
2016,11,06,03,30,3.20
2016,11,06,03,31,1.60
2016,11,06,03,32,1.60
2016,11,06,03,33,3.20
2016,11,06,03,37,1.60
2016,11,06,03,38,1.60
2016,11,06,03,39,1.60
2016,11,06,03,40,1.60
2016,11,06,03,41,1.60
2016,11,06,03,45,1.60
2016,11,06,03,46,1.60
2016,11,06,03,47,1.60
2016,11,06,03,50,1.60
2016,11,06,03,51,1.60
2016,11,06,04,01,1.60
2016,11,06,04,02,3.20
2016,11,06,04,03,1.60
2016,11,06,04,08,1.60
2016,11,06,04,09,1.60
2016,11,06,04,10,3.20
2016,11,06,04,11,3.20
2016,11,06,04,12,3.20
2016,11,06,04,13,3.20
2016,11,06,04,14,3.20
2016,11,06,04,15,3.20
2016,11,06,04,16,3.20
2016,11,06,04,17,3.20
2016,11,06,04,18,3.20
2016,11,06,04,19,3.20
2016,11,06,04,20,3.20
2016,11,06,04,21,3.20
2016,11,06,04,22,3.20
2016,11,06,04,23,1.60
2016,11,06,04,24,1.60
2016,11,06,04,25,1.60
2016,11,06,04,26,1.60
2016,11,06,04,27,1.60
2016,11,06,04,28,1.60
2016,11,06,04,29,1.60
2016,11,06,04,30,1.60
2016,11,06,04,31,1.60
2016,11,06,05,08,1.60
2016,11,06,05,09,4.80
2016,11,06,05,10,3.20
2016,11,06,05,11,3.20
2016,11,06,05,12,3.20
2016,11,06,05,13,4.80
2016,11,06,05,14,3.20
2016,11,06,05,15,3.20
2016,11,06,05,16,3.20
2016,11,06,05,17,1.60
2016,11,06,05,18,3.20
2016,11,06,05,19,3.20
2016,11,06,05,20,1.60
2016,11,06,05,21,1.60
2016,11,06,05,22,1.60
2016,11,06,05,23,1.60
2016,11,06,05,24,1.60
2016,11,06,05,25,1.60
2016,11,06,05,26,1.60
2016,11,06,05,49,1.60
2016,11,06,05,50,3.20
2016,11,06,05,51,3.20
2016,11,06,05,52,3.20
2016,11,06,05,53,3.20
2016,11,06,05,54,1.60
2016,11,06,05,55,1.60
2016,11,06,05,57,1.60
2016,11,06,05,58,1.60
2016,11,06,05,59,1.60
2016,11,06,06,00,1.60
2016,11,06,06,01,1.60
2016,11,06,06,02,3.20
2016,11,06,06,03,3.20
2016,11,06,06,04,4.80
2016,11,06,06,05,3.20
2016,11,06,06,06,3.20
2016,11,06,06,07,1.60
2016,11,06,06,08,1.60
2016,11,06,06,09,1.60
2016,11,06,06,12,1.60
2016,11,06,06,13,3.20
2016,11,06,06,14,1.60
2016,11,06,06,15,3.20
2016,11,06,06,16,1.60
2016,11,06,06,19,1.60
2016,11,06,06,20,3.20
2016,11,06,06,21,3.20
2016,11,06,06,22,3.20
2016,11,06,06,23,3.20
2016,11,06,06,24,1.60
2016,11,06,06,25,1.60
2016,11,06,06,26,1.60
2016,11,06,06,27,1.60
2016,11,06,06,28,1.60
2016,11,06,06,43,1.60
2016,11,06,06,44,1.60
2016,11,06,06,45,1.60
2016,11,06,06,55,1.60
2016,11,06,06,56,1.60
2016,11,06,06,57,1.60
2016,11,06,07,06,1.60
2016,11,06,07,07,1.60
2016,11,06,07,08,1.60
2016,11,06,07,09,1.60
2016,11,06,07,10,1.60
2016,11,06,07,11,1.60
2016,11,06,07,19,3.20
2016,11,06,07,20,3.20
2016,11,06,07,21,3.20
2016,11,06,07,22,3.20
2016,11,06,07,23,1.60
2016,11,06,07,38,3.20
2016,11,06,07,39,1.60
2016,11,06,07,49,1.60
2016,11,06,07,50,3.20
2016,11,06,07,51,1.60
2016,11,06,07,52,1.60
2016,11,06,07,53,3.20
2016,11,06,07,54,1.60
2016,11,06,07,55,1.60
2016,11,06,08,00,1.60
2016,11,06,08,01,3.20
2016,11,06,08,02,1.60
2016,11,06,08,03,1.60
2016,11,06,08,04,1.60
2016,11,06,08,05,1.60
2016,11,06,08,06,1.60
2016,11,06,08,07,1.60
2016,11,06,08,08,1.60
2016,11,06,08,09,3.20
2016,11,06,08,10,1.60
2016,11,06,08,22,1.60
2016,11,06,08,23,1.60
2016,11,06,08,24,1.60
2016,11,06,08,25,1.60
2016,11,06,08,26,1.60
2016,11,06,08,27,1.60
2016,11,06,08,28,3.20
2016,11,06,08,29,3.20
2016,11,06,08,30,3.20
2016,11,06,08,31,3.20
2016,11,06,08,32,3.20
2016,11,06,08,33,3.20
2016,11,06,08,34,1.60
2016,11,06,08,35,1.60
2016,11,06,08,36,1.60
2016,11,06,08,38,1.60
2016,11,06,08,39,1.60
2016,11,06,08,41,1.60
2016,11,06,08,42,1.60
2016,11,06,08,43,1.60
2016,11,06,08,44,3.20
2016,11,06,08,45,3.20
2016,11,06,08,46,1.60
2016,11,06,08,47,1.60
2016,11,06,08,48,3.20
2016,11,06,08,49,1.60
2016,11,06,08,50,3.20
2016,11,06,08,51,1.60
2016,11,06,08,52,1.60
2016,11,06,08,53,1.60
2016,11,06,08,54,1.60
2016,11,06,08,55,1.60
2016,11,06,09,16,1.60
2016,11,06,09,17,1.60
2016,11,06,09,18,1.60
2016,11,06,09,35,3.20
2016,11,06,09,36,3.20
2016,11,06,09,37,1.60
2016,11,06,09,38,1.60
2016,11,06,09,46,1.60
2016,11,06,09,47,1.60
2016,11,06,09,48,3.20
2016,11,06,09,49,1.60
2016,11,06,09,50,1.60
2016,11,06,09,51,3.20
2016,11,06,09,52,1.60
2016,11,06,09,53,1.60
2016,11,06,09,54,1.60
2016,11,06,09,55,1.60
2016,11,06,09,58,1.60
2016,11,06,09,59,1.60
2016,11,06,10,00,1.60
2016,11,06,10,06,3.20
2016,11,06,10,07,3.20
2016,11,06,10,08,3.20
2016,11,06,10,09,3.20
2016,11,06,10,10,1.60
2016,11,06,10,11,1.60
2016,11,06,10,12,1.60
2016,11,06,10,13,1.60
2016,11,06,10,14,3.20
2016,11,06,10,15,1.60
2016,11,06,10,17,1.60
2016,11,06,10,18,1.60
2016,11,06,10,19,3.20
2016,11,06,10,20,1.60
2016,11,06,10,22,1.60
2016,11,06,10,23,1.60
2016,11,06,10,24,1.60
2016,11,06,10,25,1.60
2016,11,06,10,26,3.20
2016,11,06,10,27,4.80
2016,11,06,10,28,3.20
2016,11,06,10,29,1.60
2016,11,06,10,30,6.40
2016,11,06,10,31,6.40
2016,11,06,10,32,4.80
2016,11,06,10,33,4.80
2016,11,06,10,34,3.20
2016,11,06,10,35,3.20
2016,11,06,10,38,3.20
2016,11,06,10,39,1.60
2016,11,06,10,40,3.20
2016,11,06,10,41,4.80
2016,11,06,10,42,4.80
2016,11,06,10,43,4.80
2016,11,06,10,44,6.40
2016,11,06,10,45,8.10
2016,11,06,10,46,11.30
2016,11,06,10,47,6.40
2016,11,06,10,48,9.60
2016,11,06,10,49,4.80
2016,11,06,10,50,12.90
2016,11,06,10,51,8.10
2016,11,06,10,52,6.40
2016,11,06,10,53,4.80
2016,11,06,10,54,9.60
2016,11,06,10,55,12.90
2016,11,06,10,56,9.60
2016,11,06,10,57,11.30
2016,11,06,10,58,14.50
2016,11,06,10,59,12.90
2016,11,06,11,00,4.80
2016,11,06,11,01,4.80
2016,11,06,11,02,1.60
2016,11,06,11,03,9.60
2016,11,06,11,04,9.60
2016,11,06,11,05,3.20
2016,11,06,11,06,6.40
2016,11,06,11,07,8.10
2016,11,06,11,08,4.80
2016,11,06,11,09,4.80
2016,11,06,11,10,3.20
2016,11,06,11,11,3.20
2016,11,06,11,12,4.80
2016,11,06,11,13,11.30
2016,11,06,11,14,4.80
2016,11,06,11,15,4.80
2016,11,06,11,16,11.30
2016,11,06,11,17,11.30
2016,11,06,11,18,14.50
2016,11,06,11,19,11.30
2016,11,06,11,20,6.40
2016,11,06,11,21,6.40
2016,11,06,11,22,4.80
2016,11,06,11,23,16.10
2016,11,06,11,24,6.40
2016,11,06,11,25,11.30
2016,11,06,11,26,11.30
2016,11,06,11,27,20.90
2016,11,06,11,28,17.70
2016,11,06,11,29,20.90
2016,11,06,11,30,24.20
2016,11,06,11,31,19.30
2016,11,06,11,32,24.20
2016,11,06,11,33,24.20
2016,11,06,11,34,14.50
2016,11,06,11,35,11.30
2016,11,06,11,36,4.80
2016,11,06,11,37,19.30
2016,11,06,11,38,9.60
2016,11,06,11,39,8.10
2016,11,06,11,40,17.70
2016,11,06,11,41,12.90
2016,11,06,11,42,3.20
2016,11,06,11,43,8.10
2016,11,06,11,44,3.20
2016,11,06,11,45,4.80
2016,11,06,11,46,4.80
2016,11,06,11,47,12.90
2016,11,06,11,48,9.60
2016,11,06,11,49,12.90
2016,11,06,11,50,9.60
2016,11,06,11,51,19.30
2016,11,06,11,52,16.10
2016,11,06,11,53,16.10
2016,11,06,11,54,17.70
2016,11,06,11,55,11.30
2016,11,06,11,56,12.90
2016,11,06,11,57,17.70
2016,11,06,11,58,6.40
2016,11,06,11,59,16.10
2016,11,06,12,00,14.50
2016,11,06,12,01,14.50
2016,11,06,12,02,12.90
2016,11,06,12,03,27.40
2016,11,06,12,04,17.70
2016,11,06,12,05,17.70
2016,11,06,12,06,16.10
2016,11,06,12,07,14.50
2016,11,06,12,08,19.30
2016,11,06,12,09,16.10
2016,11,06,12,10,8.10
2016,11,06,12,11,1.60
2016,11,06,12,12,11.30
2016,11,06,12,13,16.10
2016,11,06,12,14,11.30
2016,11,06,12,15,17.70
2016,11,06,12,16,6.40
2016,11,06,12,17,4.80
2016,11,06,12,18,3.20
2016,11,06,12,19,9.60
2016,11,06,12,20,4.80
2016,11,06,12,21,11.30
2016,11,06,12,22,8.10
2016,11,06,12,23,8.10
2016,11,06,12,24,20.90
2016,11,06,12,25,14.50
2016,11,06,12,26,12.90
2016,11,06,12,27,6.40
2016,11,06,12,28,17.70
2016,11,06,12,29,8.10
2016,11,06,12,30,6.40
2016,11,06,12,31,8.10
2016,11,06,12,32,14.50
2016,11,06,12,33,17.70
2016,11,06,12,34,9.60
2016,11,06,12,35,16.10
2016,11,06,12,36,17.70
2016,11,06,12,37,14.50
2016,11,06,12,38,11.30
2016,11,06,12,39,4.80
2016,11,06,12,40,6.40
2016,11,06,12,41,8.10
2016,11,06,12,42,3.20
2016,11,06,12,43,14.50
2016,11,06,12,44,9.60
2016,11,06,12,45,4.80
2016,11,06,12,46,4.80
2016,11,06,12,47,8.10
2016,11,06,12,48,11.30
2016,11,06,12,49,12.90
2016,11,06,12,50,14.50
2016,11,06,12,51,4.80
2016,11,06,12,52,6.40
2016,11,06,12,53,3.20
2016,11,06,12,54,6.40
2016,11,06,12,55,19.30
2016,11,06,12,56,17.70
2016,11,06,12,57,8.10
2016,11,06,12,58,9.60
2016,11,06,12,59,9.60
2016,11,06,13,00,11.30
2016,11,06,13,01,11.30
2016,11,06,13,02,8.10
2016,11,06,13,03,8.10
2016,11,06,13,04,6.40
2016,11,06,13,05,4.80
2016,11,06,13,06,1.60
2016,11,06,13,07,9.60
2016,11,06,13,08,6.40
2016,11,06,13,09,12.90
2016,11,06,13,10,14.50
2016,11,06,13,11,6.40
2016,11,06,13,12,6.40
2016,11,06,13,13,6.40
2016,11,06,13,14,6.40
2016,11,06,13,15,6.40
2016,11,06,13,16,8.10
2016,11,06,13,17,1.60
2016,11,06,13,18,6.40
2016,11,06,13,19,8.10
2016,11,06,13,20,6.40
2016,11,06,13,21,6.40
2016,11,06,13,22,4.80
2016,11,06,13,23,8.10
2016,11,06,13,24,8.10
2016,11,06,13,25,3.20
2016,11,06,13,26,8.10
2016,11,06,13,27,6.40
2016,11,06,13,28,9.60
2016,11,06,13,29,8.10
2016,11,06,13,30,6.40
2016,11,06,13,31,4.80
2016,11,06,13,32,4.80
2016,11,06,13,33,6.40
2016,11,06,13,34,9.60
2016,11,06,13,35,4.80
2016,11,06,13,36,6.40
2016,11,06,13,37,29.00
2016,11,06,13,38,11.30
2016,11,06,13,39,4.80
2016,11,06,13,40,3.20
2016,11,06,13,41,8.10
2016,11,06,13,42,12.90
2016,11,06,13,43,8.10
2016,11,06,13,44,4.80
2016,11,06,13,45,6.40
2016,11,06,13,46,9.60
2016,11,06,13,47,3.20
2016,11,06,13,48,11.30
2016,11,06,13,49,9.60
2016,11,06,13,50,16.10
2016,11,06,13,51,9.60
2016,11,06,13,52,8.10
2016,11,06,13,53,4.80
2016,11,06,13,54,1.60
2016,11,06,13,55,4.80
2016,11,06,13,56,4.80
2016,11,06,13,57,3.20
2016,11,06,13,58,8.10
2016,11,06,13,59,6.40
2016,11,06,14,00,8.10
2016,11,06,14,01,14.50
2016,11,06,14,02,6.40
2016,11,06,14,03,6.40
2016,11,06,14,04,4.80
2016,11,06,14,05,9.60
2016,11,06,14,06,8.10
2016,11,06,14,07,3.20
2016,11,06,14,08,3.20
2016,11,06,14,09,9.60
2016,11,06,14,10,8.10
2016,11,06,14,11,6.40
2016,11,06,14,12,6.40
2016,11,06,14,13,8.10
2016,11,06,14,14,6.40
2016,11,06,14,15,3.20
2016,11,06,14,16,3.20
2016,11,06,14,17,3.20
2016,11,06,14,18,1.60
2016,11,06,14,19,1.60
2016,11,06,14,20,6.40
2016,11,06,14,21,14.50
2016,11,06,14,22,11.30
2016,11,06,14,23,14.50
2016,11,06,14,24,12.90
2016,11,06,14,25,16.10
2016,11,06,14,26,11.30
2016,11,06,14,27,11.30
2016,11,06,14,28,3.20
2016,11,06,14,29,3.20
2016,11,06,14,30,17.70
2016,11,06,14,31,11.30
2016,11,06,14,32,1.60
2016,11,06,14,33,11.30
2016,11,06,14,34,17.70
2016,11,06,14,35,19.30
2016,11,06,14,36,14.50
2016,11,06,14,37,9.60
2016,11,06,14,38,16.10
2016,11,06,14,39,20.90
2016,11,06,14,40,12.90
2016,11,06,14,41,17.70
2016,11,06,14,42,16.10
2016,11,06,14,43,9.60
2016,11,06,14,44,11.30
2016,11,06,14,45,9.60
2016,11,06,14,46,8.10
2016,11,06,14,47,3.20
2016,11,06,14,48,11.30
2016,11,06,14,49,11.30
2016,11,06,14,50,12.90
2016,11,06,14,51,8.10
2016,11,06,14,52,14.50
2016,11,06,14,53,8.10
2016,11,06,14,54,8.10
2016,11,06,14,55,6.40
2016,11,06,14,56,11.30
2016,11,06,14,57,9.60
2016,11,06,14,58,9.60
2016,11,06,14,59,9.60
2016,11,06,15,00,9.60
2016,11,06,15,01,17.70
2016,11,06,15,02,8.10
2016,11,06,15,03,9.60
2016,11,06,15,04,9.60
2016,11,06,15,05,6.40
2016,11,06,15,06,4.80
2016,11,06,15,07,6.40
2016,11,06,15,08,6.40
2016,11,06,15,09,6.40
2016,11,06,15,10,9.60
2016,11,06,15,11,19.30
2016,11,06,15,12,16.10
2016,11,06,15,13,20.90
2016,11,06,15,14,22.50
2016,11,06,15,15,9.60
2016,11,06,15,16,14.50
2016,11,06,15,17,11.30
2016,11,06,15,18,6.40
2016,11,06,15,19,12.90
2016,11,06,15,20,14.50
2016,11,06,15,21,16.10
2016,11,06,15,22,9.60
2016,11,06,15,23,12.90
2016,11,06,15,24,14.50
2016,11,06,15,25,4.80
2016,11,06,15,26,6.40
2016,11,06,15,27,8.10
2016,11,06,15,28,6.40
2016,11,06,15,29,12.90
2016,11,06,15,30,8.10
2016,11,06,15,31,12.90
2016,11,06,15,32,16.10
2016,11,06,15,33,14.50
2016,11,06,15,34,9.60
2016,11,06,15,35,11.30
2016,11,06,15,36,16.10
2016,11,06,15,37,11.30
2016,11,06,15,38,4.80
2016,11,06,15,39,8.10
2016,11,06,15,40,8.10
2016,11,06,15,41,4.80
2016,11,06,15,42,11.30
2016,11,06,15,43,4.80
2016,11,06,15,44,6.40
2016,11,06,15,45,4.80
2016,11,06,15,46,20.90
2016,11,06,15,47,6.40
2016,11,06,15,48,8.10
2016,11,06,15,49,8.10
2016,11,06,15,50,19.30
2016,11,06,15,51,6.40
2016,11,06,15,52,8.10
2016,11,06,15,53,6.40
2016,11,06,15,54,6.40
2016,11,06,15,55,12.90
2016,11,06,15,56,17.70
2016,11,06,15,57,14.50
2016,11,06,15,58,12.90
2016,11,06,15,59,14.50
2016,11,06,16,00,6.40
2016,11,06,16,01,6.40
2016,11,06,16,02,11.30
2016,11,06,16,03,4.80
2016,11,06,16,04,11.30
2016,11,06,16,05,12.90
2016,11,06,16,06,12.90
2016,11,06,16,07,24.20
2016,11,06,16,08,12.90
2016,11,06,16,09,20.90
2016,11,06,16,10,16.10
2016,11,06,16,11,22.50
2016,11,06,16,12,14.50
2016,11,06,16,13,11.30
2016,11,06,16,14,9.60
2016,11,06,16,15,9.60
2016,11,06,16,16,19.30
2016,11,06,16,17,6.40
2016,11,06,16,18,9.60
2016,11,06,16,19,14.50
2016,11,06,16,20,8.10
2016,11,06,16,21,17.70
2016,11,06,16,22,16.10
2016,11,06,16,23,12.90
2016,11,06,16,24,12.90
2016,11,06,16,25,11.30
2016,11,06,16,26,11.30
2016,11,06,16,27,14.50
2016,11,06,16,28,12.90
2016,11,06,16,29,3.20
2016,11,06,16,30,14.50
2016,11,06,16,31,12.90
2016,11,06,16,32,8.10
2016,11,06,16,33,12.90
2016,11,06,16,34,9.60
2016,11,06,16,35,4.80
2016,11,06,16,36,8.10
2016,11,06,16,37,14.50
2016,11,06,16,38,12.90
2016,11,06,16,39,9.60
2016,11,06,16,40,9.60
2016,11,06,16,41,6.40
2016,11,06,16,42,4.80
2016,11,06,16,43,16.10
2016,11,06,16,44,11.30
2016,11,06,16,45,6.40
2016,11,06,16,46,1.60
2016,11,06,16,47,9.60
2016,11,06,16,48,9.60
2016,11,06,16,49,12.90
2016,11,06,16,50,14.50
2016,11,06,16,51,9.60
2016,11,06,16,52,11.30
2016,11,06,16,53,17.70
2016,11,06,16,54,22.50
2016,11,06,16,55,6.40
2016,11,06,16,56,17.70
2016,11,06,16,57,17.70
2016,11,06,16,58,11.30
2016,11,06,16,59,12.90
2016,11,06,17,00,17.70
2016,11,06,17,01,9.60
2016,11,06,17,02,17.70
2016,11,06,17,03,16.10
2016,11,06,17,04,17.70
2016,11,06,17,05,16.10
2016,11,06,17,06,25.70
2016,11,06,17,07,24.20
2016,11,06,17,08,25.70
2016,11,06,17,09,22.50
2016,11,06,17,10,17.70
2016,11,06,17,11,20.90
2016,11,06,17,12,17.70
2016,11,06,17,13,16.10
2016,11,06,17,14,16.10
2016,11,06,17,15,11.30
2016,11,06,17,16,12.90
2016,11,06,17,17,9.60
2016,11,06,17,18,14.50
2016,11,06,17,19,9.60
2016,11,06,17,20,16.10
2016,11,06,17,21,9.60
2016,11,06,17,22,3.20
2016,11,06,17,23,3.20
2016,11,06,17,24,6.40
2016,11,06,17,25,6.40
2016,11,06,17,26,17.70
2016,11,06,17,27,12.90
2016,11,06,17,28,4.80
2016,11,06,17,29,9.60
2016,11,06,17,30,17.70
2016,11,06,17,31,6.40
2016,11,06,17,32,14.50
2016,11,06,17,33,19.30
2016,11,06,17,34,17.70
2016,11,06,17,35,25.70
2016,11,06,17,36,11.30
2016,11,06,17,37,16.10
2016,11,06,17,38,19.30
2016,11,06,17,39,27.40
2016,11,06,17,40,12.90
2016,11,06,17,41,22.50
2016,11,06,17,42,16.10
2016,11,06,17,43,16.10
2016,11,06,17,44,20.90
2016,11,06,17,45,25.70
2016,11,06,17,46,11.30
2016,11,06,17,47,9.60
2016,11,06,17,48,12.90
2016,11,06,17,49,8.10
2016,11,06,17,50,9.60
2016,11,06,17,51,8.10
2016,11,06,17,52,4.80
2016,11,06,17,53,16.10
2016,11,06,17,54,8.10
2016,11,06,17,55,12.90
2016,11,06,17,56,8.10
2016,11,06,17,57,11.30
2016,11,06,17,58,8.10
2016,11,06,17,59,11.30
2016,11,06,18,00,8.10
2016,11,06,18,01,20.90
2016,11,06,18,02,16.10
2016,11,06,18,03,19.30
2016,11,06,18,04,9.60
2016,11,06,18,05,8.10
2016,11,06,18,06,8.10
2016,11,06,18,07,4.80
2016,11,06,18,08,8.10
2016,11,06,18,09,11.30
2016,11,06,18,10,14.50
2016,11,06,18,11,12.90
2016,11,06,18,12,14.50
2016,11,06,18,13,11.30
2016,11,06,18,14,17.70
2016,11,06,18,15,9.60
2016,11,06,18,16,9.60
2016,11,06,18,17,11.30
2016,11,06,18,18,11.30
2016,11,06,18,19,14.50
2016,11,06,18,20,11.30
2016,11,06,18,21,8.10
2016,11,06,18,22,12.90
2016,11,06,18,23,9.60
2016,11,06,18,24,9.60
2016,11,06,18,25,8.10
2016,11,06,18,26,9.60
2016,11,06,18,27,14.50
2016,11,06,18,28,14.50
2016,11,06,18,29,6.40
2016,11,06,18,30,8.10
2016,11,06,18,31,3.20
2016,11,06,18,32,12.90
2016,11,06,18,33,11.30
2016,11,06,18,34,4.80
2016,11,06,18,35,12.90
2016,11,06,18,36,8.10
2016,11,06,18,37,8.10
2016,11,06,18,38,4.80
2016,11,06,18,39,14.50
2016,11,06,18,40,8.10
2016,11,06,18,41,3.20
2016,11,06,18,42,8.10
2016,11,06,18,43,11.30
2016,11,06,18,44,4.80
2016,11,06,18,45,8.10
2016,11,06,18,46,6.40
2016,11,06,18,47,11.30
2016,11,06,18,48,22.50
2016,11,06,18,49,19.30
2016,11,06,18,50,8.10
2016,11,06,18,51,8.10
2016,11,06,18,52,6.40
2016,11,06,18,53,8.10
2016,11,06,18,54,9.60
2016,11,06,18,55,11.30
2016,11,06,18,56,11.30
2016,11,06,18,57,8.10
2016,11,06,18,58,8.10
2016,11,06,18,59,6.40
2016,11,06,19,00,6.40
2016,11,06,19,01,4.80
2016,11,06,19,02,9.60
2016,11,06,19,03,11.30
2016,11,06,19,04,6.40
2016,11,06,19,05,20.90
2016,11,06,19,06,22.50
2016,11,06,19,07,14.50
2016,11,06,19,08,16.10
2016,11,06,19,09,24.20
2016,11,06,19,10,16.10
2016,11,06,19,11,14.50
2016,11,06,19,12,19.30
2016,11,06,19,13,22.50
2016,11,06,19,14,14.50
2016,11,06,19,15,17.70
2016,11,06,19,16,17.70
2016,11,06,19,17,20.90
2016,11,06,19,18,12.90
2016,11,06,19,19,14.50
2016,11,06,19,20,16.10
2016,11,06,19,21,14.50
2016,11,06,19,22,9.60
2016,11,06,19,23,17.70
2016,11,06,19,24,20.90
2016,11,06,19,25,16.10
2016,11,06,19,26,19.30
2016,11,06,19,27,16.10
2016,11,06,19,28,17.70
2016,11,06,19,29,9.60
2016,11,06,19,30,9.60
2016,11,06,19,31,16.10
2016,11,06,19,32,22.50
2016,11,06,19,33,16.10
2016,11,06,19,34,14.50
2016,11,06,19,35,12.90
2016,11,06,19,36,22.50
2016,11,06,19,37,17.70
2016,11,06,19,38,16.10
2016,11,06,19,39,25.70
2016,11,06,19,40,16.10
2016,11,06,19,41,14.50
2016,11,06,19,42,11.30
2016,11,06,19,43,8.10
2016,11,06,19,44,17.70
2016,11,06,19,45,17.70
2016,11,06,19,46,16.10
2016,11,06,19,47,9.60
2016,11,06,19,48,4.80
2016,11,06,19,49,24.20
2016,11,06,19,50,20.90
2016,11,06,19,51,16.10
2016,11,06,19,52,11.30
2016,11,06,19,53,12.90
2016,11,06,19,54,24.20
2016,11,06,19,55,11.30
2016,11,06,19,56,4.80
2016,11,06,19,57,9.60
2016,11,06,19,58,9.60
2016,11,06,19,59,11.30
2016,11,06,20,00,12.90
2016,11,06,20,01,16.10
2016,11,06,20,02,17.70
2016,11,06,20,03,14.50
2016,11,06,20,04,11.30
2016,11,06,20,05,16.10
2016,11,06,20,06,19.30
2016,11,06,20,07,24.20
2016,11,06,20,08,22.50
2016,11,06,20,09,20.90
2016,11,06,20,10,14.50
2016,11,06,20,11,16.10
2016,11,06,20,12,9.60
2016,11,06,20,13,17.70
2016,11,06,20,14,9.60
2016,11,06,20,15,14.50
2016,11,06,20,16,16.10
2016,11,06,20,17,29.00
2016,11,06,20,18,19.30
2016,11,06,20,19,19.30
2016,11,06,20,20,20.90
2016,11,06,20,21,11.30
2016,11,06,20,22,19.30
2016,11,06,20,23,9.60
2016,11,06,20,24,11.30
2016,11,06,20,25,9.60
2016,11,06,20,26,6.40
2016,11,06,20,27,14.50
2016,11,06,20,28,14.50
2016,11,06,20,29,30.60
2016,11,06,20,30,38.60
2016,11,06,20,31,12.90
2016,11,06,20,32,20.90
2016,11,06,20,33,20.90
2016,11,06,20,34,8.10
2016,11,06,20,35,17.70
2016,11,06,20,36,22.50
2016,11,06,20,37,16.10
2016,11,06,20,38,19.30
2016,11,06,20,39,14.50
2016,11,06,20,40,16.10
2016,11,06,20,41,17.70
2016,11,06,20,42,19.30
2016,11,06,20,43,12.90
2016,11,06,20,44,12.90
2016,11,06,20,45,19.30
2016,11,06,20,46,24.20
2016,11,06,20,47,32.20
2016,11,06,20,48,29.00
2016,11,06,20,49,14.50
2016,11,06,20,50,20.90
2016,11,06,20,51,17.70
2016,11,06,20,52,9.60
2016,11,06,20,53,17.70
2016,11,06,20,54,16.10
2016,11,06,20,55,16.10
2016,11,06,20,56,24.20
2016,11,06,20,57,12.90
2016,11,06,20,58,16.10
2016,11,06,20,59,16.10
2016,11,06,21,00,20.90
2016,11,06,21,01,19.30
2016,11,06,21,02,27.40
2016,11,06,21,03,17.70
2016,11,06,21,04,25.70
2016,11,06,21,05,24.20
2016,11,06,21,06,14.50
2016,11,06,21,07,16.10
2016,11,06,21,08,14.50
2016,11,06,21,09,17.70
2016,11,06,21,10,9.60
2016,11,06,21,11,19.30
2016,11,06,21,12,17.70
2016,11,06,21,13,11.30
2016,11,06,21,14,6.40
2016,11,06,21,15,16.10
2016,11,06,21,16,17.70
2016,11,06,21,17,27.40
2016,11,06,21,18,20.90
2016,11,06,21,19,20.90
2016,11,06,21,20,16.10
2016,11,06,21,21,17.70
2016,11,06,21,22,16.10
2016,11,06,21,23,16.10
2016,11,06,21,24,25.70
2016,11,06,21,25,12.90
2016,11,06,21,26,19.30
2016,11,06,21,27,20.90
2016,11,06,21,28,24.20
2016,11,06,21,29,14.50
2016,11,06,21,30,14.50
2016,11,06,21,31,17.70
2016,11,06,21,32,24.20
2016,11,06,21,33,29.00
2016,11,06,21,34,30.60
2016,11,06,21,35,24.20
2016,11,06,21,36,16.10
2016,11,06,21,37,29.00
2016,11,06,21,38,11.30
2016,11,06,21,39,22.50
2016,11,06,21,40,24.20
2016,11,06,21,41,16.10
2016,11,06,21,42,14.50
2016,11,06,21,43,19.30
2016,11,06,21,44,16.10
2016,11,06,21,45,30.60
2016,11,06,21,46,17.70
2016,11,06,21,47,20.90
2016,11,06,21,48,19.30
2016,11,06,21,49,27.40
2016,11,06,21,50,25.70
2016,11,06,21,51,20.90
2016,11,06,21,52,19.30
2016,11,06,21,53,16.10
2016,11,06,21,54,24.20
2016,11,06,21,55,19.30
2016,11,06,21,56,19.30
2016,11,06,21,57,17.70
2016,11,06,21,58,24.20
2016,11,06,21,59,30.60
2016,11,06,22,00,11.30
2016,11,06,22,01,19.30
2016,11,06,22,02,17.70
2016,11,06,22,03,19.30
2016,11,06,22,04,11.30
2016,11,06,22,05,32.20
2016,11,06,22,06,24.20
2016,11,06,22,07,22.50
2016,11,06,22,08,19.30
2016,11,06,22,09,20.90
2016,11,06,22,10,17.70
2016,11,06,22,11,24.20
2016,11,06,22,12,37.00
2016,11,06,22,13,25.70